Regional Weather Roundup
Issued by NWS Midland/Odessa, TX

Skip options and go directly to product.
Home | Oldest Version | Previous Version | Current Version | All | Graphics & Text | Save Text | Print | Product List | Glossary On

Skip product version selection by date and time.   
385
ASUS44 KMAF 031010
RWRMAF
MIDLAND AREA WEATHER ROUNDUP
NATIONAL WEATHER SERVICE MIDLAND TX
500 AM CDT THU SEP 03 2015

...IN SOUTHWEST TEXAS AND SOUTHEAST NEW MEXICO...

CITY           SKY/WX    TMP DP  RH WIND       PRES   REMARKS
ALPINE         PTCLDY    63  54  72 SW7       30.13S
ANDREWS        FAIR      69  56  62 SW6       30.02R
ARTESIA        PTCLDY    70  54  56 SW7       30.02S
BIG SPRING     CLEAR     70  55  57 SE8       30.01S
CARLSBAD       MOCLDY    76  51  41 SE5       29.99F
DRYDEN           N/A     72  60  66 VRB5      29.95S
FORT STOCKTON  CLEAR     70  59  68 S9        29.98F
GUAD PASS      CLOUDY    72  49  44 W8        30.15F
HOBBS            N/A     64  54  68 SW6       30.05R
MARFA          PTCLDY    55  48  76 NW5       30.11F
MIDLAND AIRPK  CLEAR     73  56  55 CALM      30.00S
MIDLAND INTL   CLEAR     70  56  61 S5        29.99S
ODESSA         CLEAR     74  57  55 S9        30.01R
PECOS          PTCLDY    67  55  63 E3        29.96R
PRESIDIO       NOT AVBL
SEMINOLE       CLEAR     66  54  65 SW3       30.02F
SNYDER         CLEAR     71  58  63 S7        29.99S
WINK           PTCLDY    68  56  65 E6        29.97S
$$
...OTHER STATIONS IN TEXAS...

CITY           SKY/WX    TMP DP  RH WIND       PRES   REMARKS
ABILENE        PTCLDY    74  64  71 S12       29.97S
AMARILLO       PTCLDY    69  55  60 S13       30.01F
AUSTIN         PTCLDY    70  68  93 CALM      29.95S
BROWNSVILLE    CLEAR     76  74  93 S3        29.88F
CORPUS CHRISTI PTCLDY    76  73  91 CALM      29.89F
DALLAS FTW     PTCLDY    77  66  68 S8        29.95S
DEL RIO        CLEAR     77  68  73 E8        29.91F
EL PASO        MOCLDY    79  51  37 N10       30.05F
HOUSTON INT    PTCLDY    73  72  96 NE3       29.94S
LUBBOCK        PTCLDY    70  53  54 SW5       30.01S
SAN ANGELO     CLEAR     69  59  70 CALM      29.97S
SAN ANTONIO    MOCLDY    76  72  87 SE3       29.95S
WACO           CLEAR     74  68  81 SE6       29.96R
WICHITA FALLS  NOT AVBL
$$
...OTHER LOCATIONS IN NEW MEXICO...

CITY           SKY/WX    TMP DP  RH WIND       PRES   REMARKS
ALAMAGORDO     MOCLDY    73  50  43 N3        30.08R
ALBUQUERQUE    MOCLDY    69  48  47 SE6       30.16S
CANNON AFB     PTCLDY    69  53  56 SW8       30.06F
CLOVIS         PTCLDY    66  54  63 SW8       30.07F
HOLLOMAN AFB   CLOUDY    74  52  45 N5        30.05R
ROSWELL        PTCLDY    72  53  51 E5        30.02F
RUIDOSO        PTCLDY    59  46  63 SW6       30.26F
SANTA FE       MOCLDY    62  46  55 NE6       30.20F
TRUTH OR CONSE FAIR      65  56  72 S6        30.13R
TUCUMCARI      PTCLDY    71  50  47 SW13      30.00S
$$

USA.gov is the U.S. government's official web portal to all federal, state and local government web resources and services.